THORAD AGENA D DEB, 4752

Orbit data source: Space-Track

THORAD AGENA D DEB, 4752 is space debris in SSO originally from a launch on Wed, 08 Apr 1970 UTC launched from the Air Force Western Test Range (AFWTR). Debris objects in space refer to the collection of defunct objects orbiting the Earth. Examples of debris include non-operational satellites, rocket bodies, and fragments generated from explosions, collisions, or faulty payload assembly.

Loading next visibility...
Identifier
4752, 1970-025DA
Orbit
SSO
Country
Flag of USUS
Related business
Manufacturer
Unknown
Mission
Spacecraft
Bus & Motor
Unknown
Mass
Unknown
Launch date (UTC)
1970-04-08 (56 years ago)
Launch vehicle
Unknown
Launch site
Air Force Western Test Range (AFWTR)
Object type
Payload
Rocket body
Debris
Shape & HBR
Unknown shape, 0.2 m
Radar Cross Section
Medium (>0.1 m² and <1 m²)

Expand to show TLE details & history
Last TLE update: 9 hours ago

TLE from 9 hours ago
0 THORAD AGENA D DEB
1 04752U 70025DA  26255.95232522  .00002009  00000-0  10075-2 0  9998
2 04752  99.8925  51.7588 0020566 202.4054 157.6221 14.17848778846515
Epoch: 2026-09-12T22:51Z
TLE epoch observation values (Epoch: 2026-09-12T22:51:20.899Z)
Latitude
0.00002°
Longitude
76.96777°
Altitude
849.228 km
Speed
7.421 km/s
True Right ascension
03h 27m 02s
True Declination
0° 00' 00"
Sunlit
Object was in full shadow at epoch
Visualization orbit readout
Latitude
Unknown
Longitude
Unknown
Altitude
Unknown
Speed
Unknown
Apparent Right ascension
Unknown
Apparent Declination
Unknown
Sunlit
N/A
Visualization observer readout
Local Sidereal Time
00:44:22
Azimuth
Unknown
Elevation
Unknown
Doppler factor
Unknown
Orbital elements
Apogee altitude
844.683 km
Perigee altitude
815.035 km
Semi-major axis
7,207.996 km
Eccentricity
0.00206
Inclination
99.8925°
RAAN
51.7588°
Arg. of periapsis
202.4054°
True anomaly
157.71161°
Mean anomaly
157.6221°
Eccentric anomaly
157.66688°
Mean motion
3.54667 °/min
Orbital period
101.5 mins
BSTAR
0.0010075
Loading maneuver chart data...
Computing Atmospheric mass density...

Documentation

Showing up to 5 results
|